Regional Weather Roundup
Issued by NWS

Home | Current Version | Previous Version | Graphics & Text | Print | Product List | Glossary On
Versions: 1 2 3 4 5 6 7 8 9 10 11 12 13 14 15 16 17 18 19 20 21 22 23 24 25 26 27
000
ASUS45 KCYS 231010
RWRWY

WYOMING REGIONAL WEATHER ROUNDUP
NATIONAL WEATHER SERVICE CHEYENNE WY
400 AM MDT MON MAY 23 2016

NOTE:  "FAIR" INDICATES FEW OR NO CLOUDS BELOW 12,000 FEET
WITH NO SIGNIFICANT WEATHER AND/OR OBSTRUCTIONS TO VISIBILITY.

WYZ001-231100-
YELLOWSTONE NATIONAL PARK

CITY           SKY/WX    TMP DP  RH WIND       PRES   REMARKS
LK YELLOWSTONE   N/A     32  26  78 VRB5      29.94F WCI  27
W YELLOWSTONE  NOT AVBL

$$
WYZ002>013-054>058-071-098>099-231100-
NORTHERN WYOMING

CITY           SKY/WX    TMP DP  RH WIND       PRES   REMARKS
JACKSON        FAIR      32  30  93 CALM      29.94F
CODY           FAIR      46  25  42 SW3       29.82S
GREYBULL       FAIR      48  26  42 CALM      29.80S
WORLAND        FAIR      39  28  64 CALM      29.81R
SHERIDAN       FAIR      41  27  57 CALM      29.75F
BUFFALO        FAIR      45  24  43 SW6       29.79F
GILLETTE       FAIR      40  30  67 S12       29.79S WCI  33
HULETT         FAIR      45  32  61 SW7       29.79F
NEWCASTLE      FAIR      41  32  70 N13       29.81F

$$
WYZ014>020-022>026-101>103-231100-
CENTRAL WYOMING

CITY           SKY/WX    TMP DP  RH WIND       PRES   REMARKS
BIG PINEY      FAIR      27  23  85 E3        29.98F
PINEDALE       FAIR      28  27  93 NW3       29.99F
DUBOIS         FAIR      30  25  80 NW14      29.92S WCI  20
LANDER         FAIR      41  22  46 CALM      29.88R
RIVERTON       FAIR      39  24  55 NW8       29.89S WCI  33
CASPER         FAIR      37  29  72 W8        29.90R WCI  31
DOUGLAS        FAIR      37  31  78 W6        29.89R WCI  32

$$
WYZ021-027>030-104>119-231100-
SOUTHERN WYOMING

CITY           SKY/WX    TMP DP  RH WIND       PRES   REMARKS
EVANSTON       FAIR      33  27  78 SE7       29.99F WCI  27
KEMMERER         N/A     30  28  93 CALM      30.00S
FORT BRIDGER   SUNNY     36  34  93 NW3       30.03S
ROCK SPRINGS   FAIR      34  31  88 W13       29.98F WCI  25
DIXON          FAIR      31  28  90 CALM      30.05S
RAWLINS        FAIR      34  28  79 W5        29.99R WCI  30
SARATOGA       FAIR      30  30 100 CALM      30.02S
LARAMIE        FAIR      37  26  64 NW8G17    29.98S WCI  31
CHEYENNE       FAIR      42  27  55 NW9       29.94S
TORRINGTON     NOT AVBL
PINE BLUFFS    FAIR      41  32  70 N6        29.92F

$$




USA.gov is the U.S. government's official web portal to all federal, state and local government web resources and services.